Weather in Talshyk

Kazakhstan     53˚38′17″N   71˚52′14″E
temp.,
°C
wind,
m/s
gust,
m/s
humid.,
%
clouds,
%
prec.,
mm/h
press.,
hPa
HPBL,
m
29 november, sun
sun2900:00−13˚n5893100 0.0 1036268
03:00−13˚nnw51093100 0.0 1037280
06:00−13˚nnw5893100 0.0 1039320
09:00−14˚nnw51092100 0.0 1041284
12:00−14˚nw6991100 0.0 1042314
15:00−13˚nw589185 0.0 1043304
18:00−16˚nw489478 0.0 1046175
21:00−17˚nw469514 0.0 1046130
30 november, mon
mon3000:00−18˚nw459513 0.0 104895
03:00−18˚nw359663 0.0 104887
06:00−19˚nw349656 0.0 104973
09:00−19˚nw339667 0.0 105048
12:00−17˚nw239360 0.0 1051122
15:00−16˚nw23938 0.0 1051140
18:00−18˚nnw22946 0.0 105220
21:00−18˚nnw22956 0.0 105220
1 december, tue
tue100:00−19˚nnw129514 0.0 105220
03:00−19˚nw119614 0.0 105320
06:00−19˚nw119612 0.0 105320
09:00−19˚nnw019715 0.0 105320
12:00−17˚wsw119210 0.0 105436
15:00−16˚nw00930 0.0 105320
18:00−18˚e11930 0.0 105420
21:00−18˚se11920 0.0 105320
2 december, wed
wed200:00−18˚sse11910 0.0 105320
03:00−18˚se11910 0.0 105220
06:00−17˚ese12910 0.0 105220
09:00−17˚se12920 0.0 105120
12:00−15˚se22920 0.0 105041
15:00−14˚ese22910 0.0 104923
18:00−16˚ese23920 0.0 104720
21:00−17˚se23930 0.0 104620
3 december, thu
thu300:00−18˚ese23920 0.0 104520
03:00−18˚ese22930 0.0 104420
06:00−18˚ese23940 0.0 104320
09:00−19˚ese23940 0.0 104220
12:00−17˚e34910 0.0 1042177
15:00−16˚e23920 0.0 1041100
18:00−18˚e34927 0.0 104145
21:00−19˚e339435 0.0 104037